TimeEST,TemperatureF,Dew PointF,Humidity,Sea Level PressureIn,VisibilityMPH,Wind Direction,Wind SpeedMPH,Gust SpeedMPH,PrecipitationIn,Events,Conditions,WindDirDegrees,DateUTC
12:52 AM,5.0,-11.0,48,29.90,10.0,SW,3.5,-,N/A,,Partly Cloudy,230,2013-02-05 05:52:00
1:52 AM,3.9,-11.0,50,29.92,10.0,SW,4.6,-,N/A,,Clear,230,2013-02-05 06:52:00
2:52 AM,1.0,-9.9,60,29.93,10.0,SSW,4.6,-,N/A,,Clear,210,2013-02-05 07:52:00
3:52 AM,-2.9,-9.0,75,29.94,10.0,Calm,Calm,-,N/A,,Clear,0,2013-02-05 08:52:00
4:52 AM,-2.0,-9.9,69,29.95,10.0,SSW,4.6,-,N/A,,Clear,210,2013-02-05 09:52:00
5:52 AM,-5.1,-11.0,76,29.97,10.0,Calm,Calm,-,N/A,,Clear,0,2013-02-05 10:52:00
6:52 AM,-7.1,-13.0,75,29.99,10.0,Calm,Calm,-,N/A,,Clear,0,2013-02-05 11:52:00
7:52 AM,-4.0,-11.0,72,30.01,10.0,Calm,Calm,-,N/A,,Clear,0,2013-02-05 12:52:00
8:52 AM,7.0,-7.1,53,30.03,10.0,Calm,Calm,-,N/A,,Clear,0,2013-02-05 13:52:00
9:52 AM,9.0,-9.0,44,30.03,10.0,NW,4.6,-,N/A,,Clear,320,2013-02-05 14:52:00
10:52 AM,12.0,-7.1,42,30.03,10.0,Calm,Calm,-,N/A,,Clear,0,2013-02-05 15:52:00
11:52 AM,14.0,-7.1,39,30.00,10.0,WNW,3.5,-,N/A,,Clear,290,2013-02-05 16:52:00
12:52 PM,16.0,-7.1,36,29.98,10.0,South,8.1,-,N/A,,Clear,190,2013-02-05 17:52:00
1:52 PM,18.0,-9.0,30,29.97,10.0,NW,6.9,-,N/A,,Clear,310,2013-02-05 18:52:00
2:52 PM,19.0,-8.0,30,29.96,10.0,NW,4.6,-,N/A,,Clear,320,2013-02-05 19:52:00
3:52 PM,19.9,-8.0,29,29.95,10.0,Calm,Calm,-,N/A,,Clear,0,2013-02-05 20:52:00
4:52 PM,17.1,-6.0,36,29.96,10.0,Calm,Calm,-,N/A,,Clear,0,2013-02-05 21:52:00
5:52 PM,10.9,-2.0,56,29.97,10.0,Calm,Calm,-,N/A,,Clear,0,2013-02-05 22:52:00
6:52 PM,10.9,1.0,64,29.96,10.0,Calm,Calm,-,N/A,,Scattered Clouds,0,2013-02-05 23:52:00
7:52 PM,12.0,1.0,61,29.95,10.0,SSE,3.5,-,N/A,,Overcast,160,2013-02-06 00:52:00
8:52 PM,12.0,3.0,67,29.94,10.0,Calm,Calm,-,N/A,,Mostly Cloudy,0,2013-02-06 01:52:00
9:52 PM,10.9,3.0,70,29.94,10.0,Calm,Calm,-,N/A,,Overcast,0,2013-02-06 02:52:00
10:52 PM,10.0,3.0,73,29.93,10.0,Calm,Calm,-,N/A,,Overcast,0,2013-02-06 03:52:00
11:52 PM,12.0,5.0,73,29.93,10.0,Calm,Calm,-,N/A,,Overcast,0,2013-02-06 04:52:00